Home   Weather   Brampton   Past weeks

Flag for Canada Past Weather in Brampton, Ontario, Canada — Yesterday and Last 2 Weeks

Now
45 °F

Mostly cloudy.


Feels Like: 38 °F
Forecast: 37 / 43 °F
Wind: 13 mph from East

Location: Toronto Pearson International Airport

Current Time: Apr 30, 2017 at 5:20:49 am

Latest Report: Apr 30, 2017 at 4:00 am


Visibility: 15 mi

Pressure: 30.23 "Hg

Humidity: 57%

Dew Point: 30 °F

Location of BramptonLocation

Past Weather in Brampton — Graph

°F

Brampton Temperature Yesterday

Maximum temperature yesterday: 59 °F (at 12:00 am)
Minimum temperature yesterday: 43 °F (at 8:00 am)
Average temperature yesterday: 51 °F

High & Low Weather Summary for the Past Weeks

 TemperatureHumidityPressure
High77 °F (Apr 27, 4:00 pm)100% (Apr 15, 1:00 pm)30.46 "Hg (Apr 15, 1:00 pm)
Low32 °F (Apr 18, 3:00 am)24% (Apr 23, 6:00 pm)29.50 "Hg (Apr 27, 5:00 pm)
Average51 °F70%29.99 "Hg
* Reported Apr 15 3:00 am — Apr 30 3:00 am, Brampton, Weather by CustomWeather, © 2017

Note: Actual official high and low records may vary slightly from our data, if they occured in-between our weather recording intervals... More about our weather records

Advertising

Brampton Weather History for the Previous 24 Hours

Scroll right to see more
 ConditionsComfort  
Time TempWeatherWind HumidityBarometerVisibility
3:00 am
Sun, Apr 30
45 °FOvercast.8 mph57%30.22 "Hg15 mi
2:00 am45 °FPartly cloudy.8 mph57%30.25 "Hg15 mi
1:00 am46 °FPartly cloudy.12 mph50%30.26 "Hg15 mi
12:00 am46 °FPartly cloudy.13 mph50%30.27 "Hg15 mi
11:00 pm
Sat, Apr 29
46 °FPassing clouds.9 mph46%30.28 "Hg15 mi
10:00 pm46 °FPartly cloudy.13 mph46%30.28 "Hg15 mi
9:00 pm46 °FPassing clouds.14 mph46%30.27 "Hg15 mi
8:00 pm48 °FOvercast.15 mph46%30.22 "Hg15 mi
7:00 pm50 °FPartly sunny.17 mph47%30.19 "Hg15 mi
6:00 pm52 °FPartly sunny.15 mph47%30.19 "Hg15 mi
5:00 pm54 °FPartly sunny.14 mph47%30.17 "Hg15 mi
4:00 pm57 °FPartly sunny.13 mph48%30.17 "Hg15 mi
3:00 pm57 °FMostly cloudy.9 mph51%30.17 "Hg15 mi
2:00 pm57 °FMostly cloudy.3 mph48%30.14 "Hg15 mi
1:00 pm54 °FPartly sunny.8 mph51%30.12 "Hg15 mi
12:00 pm52 °FPartly sunny.9 mph54%30.12 "Hg15 mi
11:00 am48 °FPartly sunny.9 mph54%30.12 "Hg15 mi
10:00 am46 °FPartly sunny.17 mph53%30.13 "Hg15 mi
9:00 am45 °FPartly sunny.12 mph57%30.11 "Hg15 mi
8:00 am43 °FPartly sunny.15 mph61%30.07 "Hg15 mi
7:00 am45 °FBroken clouds.18 mph61%30.05 "Hg15 mi
6:00 am45 °FPassing clouds.17 mph66%30.02 "Hg15 mi
5:00 am45 °FPassing clouds.21 mph71%29.98 "Hg15 mi
Weather by CustomWeather, © 2017

See weather overviewHow to use our weather pages